CW7217 Weather Reports


Display with metric or nautical units.
time (UTC)temp
F
wind
direction
speed
MPH
gust
MPH
rain 1hr
in
rain 24hr
in
rain mn
in
humidity
%
barometer
mb
20260507083057 52 0.0 0.0 0.00 0.00 0.00 79 1019.7
20260507081559 52 0.0 0.0 0.00 0.00 0.00 78 1019.7
20260507080059 53 0.0 0.0 0.00 0.00 0.00 78 1019.6
20260507074600 53 0.0 0.0 0.00 0.00 0.00 79 1019.6
20260507073056 53 0.0 0.0 0.00 0.00 0.00 79 1019.6
20260507071553 53 0.0 0.0 0.00 0.00 0.00 79 1019.8
20260507070105 53 0.0 0.0 0.00 0.00 0.00 78 1019.6
20260507064558 54 0.0 0.0 0.00 0.00 0.00 77 1019.4
20260507063053 54 0.0 0.0 0.00 0.00 0.00 76 1019.2
20260507061558 54 0.0 0.0 0.00 0.00 0.00 76 1019.0
20260507060101 54 0.0 0.0 0.00 0.00 0.00 76 1018.7
20260507054559 54 0.0 0.0 0.00 0.00 0.00 75 1018.4
20260507053058 55 0.0 0.0 0.00 0.00 0.00 74 1018.3
20260507051559 55 0.0 0.0 0.00 0.00 0.00 73 1017.9
20260507050057 55 0.0 0.0 0.00 0.00 0.00 72 1017.8
20260507044609 56 0.0 0.0 0.00 0.00 0.00 72 1017.4
20260507043104 56 0.0 0.0 0.00 0.00 0.00 71 1017.2
20260507041604 56 0.0 0.0 0.00 0.00 0.00 70 1017.3
20260507040058 57 0.0 0.0 0.00 0.00 0.00 69 1017.4
20260507034559 57 0.0 0.0 0.00 0.00 0.00 68 1017.4
20260507033055 58 0.0 0.0 0.00 0.00 0.00 67 1017.2
20260507031559 58 0.0 0.0 0.00 0.00 0.00 67 1017.0
20260507030054 58 0.0 0.0 0.00 0.00 0.00 67 1016.8
20260507024557 58 0.0 0.0 0.00 0.00 0.00 65 1016.7
20260507023108 59 0.0 0.0 0.00 0.00 0.00 64 1016.6
20260507021557 59 0.0 0.0 0.00 0.00 0.00 63 1016.4
20260507020100 60 0.0 0.0 0.00 0.00 0.00 62 1016.3
20260507014557 61 0.0 0.0 0.00 0.00 0.00 60 1016.1
20260507013052 62 0.0 0.0 0.00 0.00 0.00 59 1015.9
20260507011552 63 0.0 0.0 0.00 0.00 0.00 57 1015.7
20260507010054 64 0.0 0.0 0.00 0.00 0.00 56 1015.6
20260507004557 64 0.0 0.0 0.00 0.00 0.00 55 1015.7
20260507003113 66 0.0 0.0 0.00 0.00 0.00 53 1015.3
20260507001615 67 0.0 0.0 0.00 0.00 0.00 52 1015.1
20260507000058 67 0.0 0.0 0.00 0.00 0.00 53 1015.0
20260506234555 67 0.0 0.0 0.00 0.00 0.00 52 1015.0
20260506233055 67 0.0 0.0 0.00 0.00 0.00 52 1015.1
20260506231606 68 0.0 0.0 0.00 0.00 0.00 50 1015.0
20260506230113 69 0.0 0.0 0.00 0.00 0.00 49 1014.7
20260506224553 69 0.0 0.0 0.00 0.00 0.00 49 1014.4
20260506223103 69 0.0 0.0 0.00 0.00 0.00 47 1014.3
20260506221610 69 0.0 0.0 0.00 0.00 0.00 47 1014.2
20260506220056 70 0.0 0.0 0.00 0.00 0.00 46 1014.0
20260506214557 71 0.0 0.0 0.00 0.00 0.00 46 1014.1
20260506213055 71 0.0 0.0 0.00 0.00 0.00 45 1014.1
20260506211555 72 0.0 0.0 0.00 0.00 0.00 45 1014.2
20260506210058 73 0.0 0.0 0.00 0.00 0.00 43 1014.5
20260506204556 73 0.0 0.0 0.00 0.00 0.00 44 1014.4
20260506203119 74 0.0 0.0 0.00 0.00 0.00 43 1014.5
20260506201552 72 0.0 0.0 0.00 0.00 0.00 44 1014.9
20260506200057 71 0.0 0.0 0.00 0.00 0.00 43 1015.1
20260506194600 71 0.0 0.0 0.00 0.00 0.00 45 1015.0
20260506193104 71 0.0 0.0 0.00 0.00 0.00 46 1015.2
20260506191553 70 0.0 0.0 0.00 0.00 0.00 47 1015.3
20260506190054 69 0.0 0.0 0.00 0.00 0.00 47 1015.5
20260506184559 69 0.0 0.0 0.00 0.00 0.00 49 1015.8
20260506183108 66 0.0 0.0 0.00 0.00 0.00 52 1016.0
20260506181604 64 0.0 0.0 0.00 0.00 0.00 54 1016.2
20260506180058 64 0.0 0.0 0.00 0.00 0.00 54 1016.3
20260506174559 62 0.0 0.0 0.00 0.00 0.00 58 1016.5
20260506173106 62 0.0 0.0 0.00 0.00 0.00 59 1016.6
20260506171553 61 0.0 0.0 0.00 0.00 0.00 59 1016.4
20260506170057 60 0.0 0.0 0.00 0.00 0.00 62 1016.5
20260506164615 58 0.0 0.0 0.00 0.00 0.00 65 1016.9
20260506163101 56 0.0 0.0 0.00 0.00 0.00 68 1016.7
20260506161553 54 0.0 0.0 0.00 0.00 0.00 71 1016.3
20260506160105 54 0.0 0.0 0.00 0.00 0.00 74 1016.4
20260506154559 53 0.0 0.0 0.00 0.00 0.00 75 1016.2
20260506153053 52 0.0 0.0 0.00 0.00 0.00 76 1016.2
20260506151555 52 0.0 0.0 0.00 0.00 0.00 77 1016.1
20260506144555 52 0.0 0.0 0.00 0.00 0.00 76 1016.1
20260506143056 52 0.0 0.0 0.00 0.00 0.00 76 1016.4
20260506141556 52 0.0 0.0 0.00 0.00 0.00 77 1016.1
20260506140056 51 0.0 0.0 0.00 0.00 0.00 78 1016.2
20260506134555 51 0.0 0.0 0.00 0.00 0.00 78 1016.5
20260506133109 51 0.0 0.0 0.00 0.00 0.00 78 1015.8
20260506131614 51 0.0 0.0 0.00 0.00 0.00 77 1015.9
20260506130053 51 0.0 0.0 0.00 0.00 0.00 77 1015.4
20260506124552 51 0.0 0.0 0.00 0.00 0.00 78 1015.7
20260506123057 51 0.0 0.0 0.00 0.00 0.00 78 1015.6
20260506121600 51 0.0 0.0 0.00 0.00 0.00 78 1014.7
20260506120103 52 0.0 0.0 0.00 0.00 0.00 78 1014.1
20260506114556 52 0.0 0.0 0.00 0.00 0.00 78 1013.8
20260506113058 52 0.0 0.0 0.00 0.00 0.00 78 1013.5
20260506111557 52 0.0 0.0 0.00 0.00 0.00 77 1013.7
20260506110109 52 0.0 0.0 0.00 0.00 0.00 78 1013.5
20260506104608 52 0.0 0.0 0.00 0.00 0.00 78 1013.3
20260506103055 52 0.0 0.0 0.00 0.00 0.00 78 1013.5
20260506101554 52 0.0 0.0 0.00 0.00 0.00 79 1013.4
20260506100108 52 0.0 0.0 0.00 0.00 0.00 78 1013.0
20260506094601 52 0.0 0.0 0.00 0.00 0.00 79 1012.5
20260506093056 52 0.0 0.0 0.00 0.00 0.00 80 1012.5
20260506091555 52 0.0 0.0 0.00 0.00 0.00 81 1012.6
20260506090059 52 0.0 0.0 0.00 0.00 0.00 80 1012.4
20260506084618 52 0.0 0.0 0.00 0.00 0.00 80 1012.4